Tracking 22124 objects as of 24-Jan-2021
HD Live streaming from Space Station
objects crossing your sky now

ONEWEB-0118

Track ONEWEB-0118 now!
10-day predictions
ONEWEB-0118 is classified as:


NORAD ID: 47264
Int'l Code: 2020-100G
Perigee: 566.6 km
Apogee: 585.6 km
Inclination: 87.5 °
Period: 96.0 minutes
Semi major axis: 6947 km
RCS: Unknown
Launch date: December 18, 2020
Source: United Kingdom (UK)
Launch site: VOSTOCHNY COSMODROME (VOSTO)
aabbcc
Your satellite tracking list
Your tracking list is empty




NASA's NSSDC Master Catalog

Two Line Element Set (TLE):
1 47264U 20100G   21023.91667824 -.01392020  00000-0 -12405+0 0  9997
2 47264  87.4686  26.9166 0013701 132.0782 178.7871 14.99340618  1767
Source of the keplerian elements: AFSPC